This is the latest recevied weather packets stored in our database for station/object N4PWG. If no packets are shown the sender has not sent any weather packets the latest 10 day(s).
| Time | Temp. | Humidity | Pressure | Rain* | Wind** | Luminosity | Snow |
|---|---|---|---|---|---|---|---|
| 1778077365 | 10.56° C | 90% | 1031.8 hPa | 0 mm | - | 209 W/m² | - |
| 1778077063 | 10.56° C | 90% | 1031.4 hPa | 0 mm | - | 146 W/m² | - |
| 1778076761 | 10.56° C | 91% | 1031.4 hPa | 0 mm | - | 132 W/m² | - |
| 1778076458 | 10.56° C | 90% | 1031.6 hPa | 0 mm | - | 131 W/m² | - |
| 1778076155 | 10° C | 92% | 1031.5 hPa | 0 mm | - | 121 W/m² | - |
| 1778075852 | 10° C | 91% | 1031.2 hPa | 0 mm | - | 103 W/m² | - |
| 1778075548 | 10° C | 91% | 1031.3 hPa | 0 mm | - | 104 W/m² | - |
| 1778075245 | 10° C | 92% | 1031.1 hPa | 0 mm | - | 103 W/m² | - |
| 1778074941 | 10° C | 91% | 1031.1 hPa | 0 mm | - | 100 W/m² | - |
| 1778074639 | 10° C | 91% | 1031 hPa | 0 mm | - | 78 W/m² | - |
| 1778074335 | 10° C | 92% | 1030.8 hPa | 0 mm | - | 78 W/m² | - |
| 1778074032 | 9.44° C | 92% | 1030.7 hPa | 0 mm | - | 127 W/m² | - |
| 1778073729 | 9.44° C | 92% | 1030.7 hPa | 0 mm | - | 88 W/m² | - |
| 1778073427 | 9.44° C | 93% | 1030.7 hPa | 0 mm | - | 64 W/m² | - |
| 1778073123 | 9.44° C | 93% | 1030.7 hPa | 0 mm | - | 81 W/m² | - |
| 1778072820 | 9.44° C | 93% | 1030.3 hPa | 0 mm | - | 76 W/m² | - |
| 1778072517 | 9.44° C | 94% | 1030.4 hPa | 0 mm | - | 69 W/m² | - |
| 1778072215 | 9.44° C | 94% | 1030.5 hPa | 0 mm | - | 63 W/m² | - |
| 1778071913 | 8.89° C | 95% | 1030.6 hPa | 0 mm | - | 44 W/m² | - |
| 1778071610 | 8.89° C | 94% | 1030.6 hPa | 0 mm | - | 34 W/m² | - |
| 1778071308 | 8.89° C | 94% | 1030 hPa | 0 mm | - | 42 W/m² | - |
| 1778071005 | 8.89° C | 95% | 1030 hPa | 0 mm | - | 43 W/m² | - |
| 1778070704 | 8.89° C | 94% | 1030 hPa | 0 mm | - | 52 W/m² | - |
| 1778070400 | 8.89° C | 94% | 1029.8 hPa | 0 mm | - | 48 W/m² | - |
| 1778070098 | 8.89° C | 94% | 1029.7 hPa | 0 mm | - | 49 W/m² | - |
* Rain latest hour (hover to see other rain measurements)
** Current wind speed in m/s (hover to see current wind gust speed)